| time (UTC) | temp F | wind direction | speed knots | gust knots | rain 1hr in | rain 24hr in | rain mn in | humidity % | barometer mb |
| 20260502213832 | 57 | 314 | 0.9 | 2.6 | 0.00 | 0.00 | 0.00 | 86 | 1014.1 |
| 20260502213332 | 57 | 63 | 0.9 | 2.6 | 0.00 | 0.00 | 0.00 | 86 | 1014.1 |
| 20260502212331 | 58 | 314 | 0.9 | 2.6 | 0.00 | 0.00 | 0.00 | 87 | 1014.1 |
| 20260502211330 | 58 | 68 | 0.9 | 2.6 | 0.00 | 0.00 | 0.00 | 86 | 1014.0 |
| 20260502210829 | 58 | 89 | 0.9 | 2.6 | 0.00 | 0.00 | 0.00 | 86 | 1013.9 |
| 20260502210329 | 58 | 59 | 0.9 | 2.6 | 0.00 | 0.00 | 0.00 | 86 | 1014.0 |
| 20260502205830 | 58 | 178 | 0.9 | 2.6 | 0.00 | 0.00 | 0.00 | 85 | 1013.9 |
| 20260502205327 | 59 | 89 | 0.9 | 2.6 | 0.00 | 0.00 | 0.00 | 85 | 1013.9 |
| 20260502204826 | 59 | 72 | 1.7 | 3.5 | 0.00 | 0.00 | 0.00 | 85 | 1013.9 |
| 20260502204332 | 59 | 56 | 1.7 | 3.5 | 0.00 | 0.00 | 0.00 | 85 | 1014.0 |
| 20260502203325 | 59 | 82 | 1.7 | 3.5 | 0.00 | 0.00 | 0.00 | 85 | 1013.9 |
| 20260502202323 | 60 | 89 | 1.7 | 4.3 | 0.00 | 0.00 | 0.00 | 84 | 1014.1 |
| 20260502201823 | 60 | 46 | 1.7 | 3.5 | 0.00 | 0.00 | 0.00 | 84 | 1014.2 |
| 20260502201323 | 60 | 46 | 1.7 | 3.5 | 0.00 | 0.00 | 0.00 | 84 | 1014.2 |
| 20260502200822 | 61 | 314 | 1.7 | 3.5 | 0.00 | 0.00 | 0.00 | 83 | 1014.1 |
| 20260502200321 | 61 | 20 | 1.7 | 3.5 | 0.00 | 0.00 | 0.00 | 83 | 1014.3 |
| 20260502195820 | 62 | 269 | 0.9 | 3.5 | 0.00 | 0.00 | 0.00 | 82 | 1014.3 |
| 20260502195319 | 62 | 63 | 0.9 | 3.5 | 0.00 | 0.00 | 0.00 | 81 | 1014.3 |
| 20260502194823 | 62 | 89 | 0.9 | 3.5 | 0.00 | 0.00 | 0.00 | 81 | 1014.3 |
| 20260502194320 | 63 | 28 | 0.9 | 3.5 | 0.00 | 0.00 | 0.00 | 80 | 1014.2 |
| 20260502193814 | 63 | 25 | 0.9 | 3.5 | 0.00 | 0.00 | 0.00 | 78 | 1014.2 |
| 20260502193314 | 64 | 46 | 0.9 | 3.5 | 0.00 | 0.00 | 0.00 | 77 | 1014.0 |
| 20260502192815 | 65 | 28 | 1.7 | 3.5 | 0.00 | 0.00 | 0.00 | 75 | 1014.0 |
| 20260502192310 | 66 | 56 | 1.7 | 3.5 | 0.00 | 0.00 | 0.00 | 73 | 1013.9 |
| 20260502191810 | 66 | 89 | 1.7 | 4.3 | 0.00 | 0.00 | 0.00 | 71 | 1013.9 |
| 20260502191308 | 67 | 1 | 1.7 | 4.3 | 0.00 | 0.00 | 0.00 | 71 | 1013.8 |
| 20260502190805 | 67 | 1 | 1.7 | 3.5 | 0.00 | 0.00 | 0.00 | 70 | 1013.7 |
| 20260502190305 | 67 | 269 | 1.7 | 3.5 | 0.00 | 0.00 | 0.00 | 70 | 1013.7 |
| 20260502185805 | 67 | 296 | 1.7 | 5.2 | 0.00 | 0.00 | 0.00 | 69 | 1013.6 |
| 20260502184805 | 68 | 305 | 1.7 | 4.3 | 0.00 | 0.00 | 0.00 | 67 | 1013.8 |
| 20260502184303 | 68 | 316 | 1.7 | 4.3 | 0.00 | 0.00 | 0.00 | 66 | 1013.8 |
| 20260502183804 | 69 | 321 | 0.9 | 3.5 | 0.00 | 0.00 | 0.00 | 65 | 1013.7 |
| 20260502183301 | 69 | 324 | 1.7 | 3.5 | 0.00 | 0.00 | 0.00 | 65 | 1013.7 |
| 20260502182259 | 69 | 342 | 0.9 | 3.5 | 0.00 | 0.00 | 0.00 | 63 | 1013.7 |
| 20260502181801 | 70 | 269 | 0.9 | 3.5 | 0.00 | 0.00 | 0.00 | 62 | 1013.7 |
| 20260502181257 | 71 | 1 | 0.9 | 3.5 | 0.00 | 0.00 | 0.00 | 62 | 1013.7 |
| 20260502180758 | 71 | 234 | 0.9 | 3.5 | 0.00 | 0.00 | 0.00 | 61 | 1013.8 |
| 20260502180256 | 71 | 145 | 0.9 | 5.2 | 0.00 | 0.00 | 0.00 | 60 | 1013.8 |
| 20260502170244 | 75 | 213 | 3.5 | 7.8 | 0.00 | 0.00 | 0.00 | 54 | 1014.1 |
| 20260502164244 | 75 | 269 | 3.5 | 8.7 | 0.00 | 0.00 | 0.00 | 54 | 1014.2 |
| 20260502163744 | 75 | 213 | 4.3 | 8.7 | 0.00 | 0.00 | 0.00 | 54 | 1014.3 |
| 20260502163244 | 75 | 245 | 4.3 | 8.7 | 0.00 | 0.00 | 0.00 | 54 | 1014.3 |
| 20260502162745 | 75 | 262 | 3.5 | 7.8 | 0.00 | 0.00 | 0.00 | 54 | 1014.3 |
| 20260502161744 | 76 | 237 | 4.3 | 7.8 | 0.00 | 0.00 | 0.00 | 53 | 1014.4 |
| 20260502160744 | 75 | 283 | 3.5 | 7.8 | 0.00 | 0.00 | 0.00 | 55 | 1014.4 |
| 20260502160244 | 75 | 252 | 3.5 | 7.8 | 0.00 | 0.00 | 0.00 | 53 | 1014.4 |
| 20260502152234 | 76 | 246 | 5.2 | 9.6 | 0.00 | 0.00 | 0.00 | 51 | 1014.9 |
| 20260502151232 | 76 | 275 | 5.2 | 9.6 | 0.00 | 0.00 | 0.00 | 51 | 1015.0 |
| 20260502150732 | 76 | 247 | 5.2 | 9.6 | 0.00 | 0.00 | 0.00 | 50 | 1015.0 |
| 20260502150233 | 77 | 269 | 4.3 | 9.6 | 0.00 | 0.00 | 0.00 | 50 | 1015.0 |
| 20260502130707 | 78 | 218 | 5.2 | 10.4 | 0.00 | 0.00 | 0.00 | 40 | 1015.5 |
| 20260502130206 | 79 | 245 | 4.3 | 10.4 | 0.00 | 0.00 | 0.00 | 41 | 1015.4 |
| 20260502123706 | 77 | 201 | 5.2 | 11.3 | 0.00 | 0.00 | 0.00 | 41 | 1015.6 |
| 20260502123204 | 78 | 203 | 6.1 | 13.0 | 0.00 | 0.00 | 0.00 | 39 | 1015.6 |
| 20260502122204 | 77 | 248 | 5.2 | 11.3 | 0.00 | 0.00 | 0.00 | 42 | 1015.6 |
| 20260502121704 | 77 | 214 | 5.2 | 13.0 | 0.00 | 0.00 | 0.00 | 41 | 1015.6 |
| 20260502120659 | 76 | 229 | 6.1 | 13.9 | 0.00 | 0.00 | 0.00 | 41 | 1015.7 |
| 20260502120159 | 77 | 195 | 6.1 | 13.9 | 0.00 | 0.00 | 0.00 | 40 | 1015.8 |
| 20260502115701 | 77 | 214 | 6.1 | 13.0 | 0.00 | 0.00 | 0.00 | 40 | 1015.8 |
| 20260502115159 | 78 | 243 | 6.1 | 13.0 | 0.00 | 0.00 | 0.00 | 40 | 1015.9 |
| 20260502114657 | 78 | 173 | 6.1 | 11.3 | 0.00 | 0.00 | 0.00 | 41 | 1016.1 |
| 20260502114159 | 78 | 222 | 7.8 | 13.9 | 0.00 | 0.00 | 0.00 | 38 | 1016.1 |
| 20260502113658 | 78 | 220 | 7.0 | 13.9 | 0.00 | 0.00 | 0.00 | 40 | 1016.3 |
| 20260502111653 | 79 | 237 | 5.2 | 12.2 | 0.00 | 0.00 | 0.00 | 32 | 1016.4 |
| 20260502110152 | 78 | 222 | 5.2 | 12.2 | 0.00 | 0.00 | 0.00 | 33 | 1016.5 |
| 20260502105652 | 78 | 213 | 4.3 | 9.6 | 0.00 | 0.00 | 0.00 | 32 | 1016.5 |
| 20260502105152 | 77 | 202 | 3.5 | 8.7 | 0.00 | 0.00 | 0.00 | 32 | 1016.7 |
| 20260502104150 | 76 | 206 | 4.3 | 9.6 | 0.00 | 0.00 | 0.00 | 34 | 1016.6 |
| 20260502103649 | 76 | 220 | 5.2 | 10.4 | 0.00 | 0.00 | 0.00 | 35 | 1016.7 |
| 20260502103149 | 76 | 228 | 5.2 | 10.4 | 0.00 | 0.00 | 0.00 | 35 | 1016.6 |
| 20260502102648 | 74 | 215 | 4.3 | 9.6 | 0.00 | 0.00 | 0.00 | 35 | 1016.8 |
| 20260502102151 | 74 | 225 | 4.3 | 9.6 | 0.00 | 0.00 | 0.00 | 36 | 1016.8 |
| 20260502101146 | 75 | 235 | 7.8 | 12.2 | 0.00 | 0.00 | 0.00 | 35 | 1016.9 |
| 20260502100645 | 75 | 225 | 7.0 | 13.0 | 0.00 | 0.00 | 0.00 | 35 | 1017.1 |
| 20260502100143 | 75 | 176 | 6.1 | 13.0 | 0.00 | 0.00 | 0.00 | 32 | 1017.0 |
| 20260502091136 | 74 | 165 | 3.5 | 8.7 | 0.00 | 0.00 | 0.00 | 35 | 1017.1 |
| 20260502090635 | 75 | 212 | 4.3 | 9.6 | 0.00 | 0.00 | 0.00 | 35 | 1017.0 |
| 20260502090134 | 75 | 216 | 4.3 | 9.6 | 0.00 | 0.00 | 0.00 | 36 | 1017.1 |
| 20260502071121 | 65 | 135 | 2.6 | 7.8 | 0.00 | 0.00 | 0.00 | 51 | 1017.8 |
| 20260502070621 | 65 | 201 | 3.5 | 7.8 | 0.00 | 0.00 | 0.00 | 52 | 1017.8 |
| 20260502064621 | 62 | 210 | 4.3 | 8.7 | 0.00 | 0.00 | 0.00 | 55 | 1017.7 |
| 20260502064121 | 62 | 150 | 5.2 | 9.6 | 0.00 | 0.00 | 0.00 | 57 | 1017.8 |
| 20260502063621 | 61 | 148 | 5.2 | 9.6 | 0.00 | 0.00 | 0.00 | 59 | 1017.8 |
| 20260502063120 | 60 | 155 | 4.3 | 8.7 | 0.00 | 0.00 | 0.00 | 59 | 1017.8 |
| 20260502062619 | 60 | 171 | 4.3 | 8.7 | 0.00 | 0.00 | 0.00 | 60 | 1017.8 |
| 20260502062119 | 59 | 163 | 4.3 | 8.7 | 0.00 | 0.00 | 0.00 | 60 | 1017.8 |
| 20260502061611 | 59 | 178 | 4.3 | 8.7 | 0.00 | 0.00 | 0.00 | 61 | 1017.7 |
| 20260502061111 | 58 | 132 | 3.5 | 7.8 | 0.00 | 0.00 | 0.00 | 61 | 1017.8 |
| 20260502060611 | 58 | 175 | 3.5 | 7.0 | 0.00 | 0.00 | 0.00 | 63 | 1017.9 |
| 20260502060110 | 57 | 135 | 2.6 | 7.0 | 0.00 | 0.00 | 0.00 | 63 | 1018.0 |
| 20260502055609 | 57 | 146 | 2.6 | 6.1 | 0.00 | 0.00 | 0.00 | 64 | 1018.0 |
| 20260502055105 | 56 | 170 | 2.6 | 6.1 | 0.00 | 0.00 | 0.00 | 65 | 1018.0 |
| 20260502054605 | 55 | 143 | 2.6 | 6.1 | 0.00 | 0.00 | 0.00 | 67 | 1018.0 |
| 20260502054104 | 54 | 162 | 3.5 | 7.0 | 0.00 | 0.00 | 0.00 | 67 | 1017.9 |
| 20260502053604 | 54 | 193 | 4.3 | 8.7 | 0.00 | 0.00 | 0.00 | 67 | 1017.9 |
| 20260502053105 | 53 | 168 | 4.3 | 8.7 | 0.00 | 0.00 | 0.00 | 67 | 1018.0 |
| 20260502052100 | 53 | 169 | 3.5 | 8.7 | 0.00 | 0.00 | 0.00 | 68 | 1017.9 |
| 20260502051057 | 53 | 166 | 3.5 | 7.0 | 0.00 | 0.00 | 0.00 | 68 | 1018.0 |
| 20260502050610 | 52 | 165 | 4.3 | 7.0 | 0.00 | 0.00 | 0.00 | 68 | 1017.9 |
| 20260502050058 | 52 | 135 | 4.3 | 7.8 | 0.00 | 0.00 | 0.00 | 67 | 1017.9 |
| 20260502045557 | 52 | 146 | 3.5 | 7.8 | 0.00 | 0.00 | 0.00 | 67 | 1017.9 |
| 20260502044553 | 52 | 136 | 3.5 | 8.7 | 0.00 | 0.00 | 0.00 | 67 | 1017.9 |
| 20260502044055 | 52 | 178 | 3.5 | 7.8 | 0.00 | 0.00 | 0.00 | 68 | 1018.0 |
| 20260502043556 | 52 | 136 | 3.5 | 7.8 | 0.00 | 0.00 | 0.00 | 68 | 1018.0 |
| 20260502043048 | 52 | 152 | 3.5 | 7.8 | 0.00 | 0.00 | 0.00 | 68 | 1018.0 |
| 20260502042546 | 52 | 174 | 3.5 | 7.0 | 0.00 | 0.00 | 0.00 | 68 | 1018.0 |
| 20260502042047 | 52 | 167 | 3.5 | 7.0 | 0.00 | 0.00 | 0.00 | 67 | 1018.0 |
| 20260502041043 | 52 | 137 | 3.5 | 8.7 | 0.00 | 0.00 | 0.00 | 67 | 1018.1 |
| 20260502040545 | 52 | 156 | 3.5 | 8.7 | 0.00 | 0.00 | 0.00 | 67 | 1018.2 |
| 20260502040041 | 52 | 169 | 3.5 | 8.7 | 0.00 | 0.00 | 0.00 | 67 | 1018.1 |
| 20260502035542 | 52 | 131 | 3.5 | 8.7 | 0.00 | 0.00 | 0.00 | 66 | 1018.2 |
| 20260502034539 | 52 | 155 | 3.5 | 7.0 | 0.00 | 0.00 | 0.00 | 65 | 1018.3 |
| 20260502034040 | 53 | 127 | 3.5 | 7.0 | 0.00 | 0.00 | 0.00 | 65 | 1018.3 |
| 20260502033538 | 53 | 142 | 4.3 | 7.8 | 0.00 | 0.00 | 0.00 | 65 | 1018.2 |
| 20260502032537 | 53 | 136 | 3.5 | 7.0 | 0.00 | 0.00 | 0.00 | 64 | 1018.3 |
| 20260502032036 | 53 | 133 | 4.3 | 7.0 | 0.00 | 0.00 | 0.00 | 64 | 1018.3 |
| 20260502031536 | 54 | 138 | 4.3 | 7.0 | 0.00 | 0.00 | 0.00 | 63 | 1018.3 |
| 20260502031035 | 54 | 137 | 4.3 | 7.8 | 0.00 | 0.00 | 0.00 | 63 | 1018.3 |
| 20260502030534 | 54 | 149 | 4.3 | 7.8 | 0.00 | 0.00 | 0.00 | 63 | 1018.4 |
| 20260502030032 | 54 | 137 | 4.3 | 9.6 | 0.00 | 0.00 | 0.00 | 63 | 1018.4 |
| 20260502025533 | 54 | 146 | 4.3 | 9.6 | 0.00 | 0.00 | 0.00 | 63 | 1018.5 |
| 20260502025032 | 54 | 131 | 4.3 | 8.7 | 0.00 | 0.00 | 0.00 | 63 | 1018.5 |
| 20260502024532 | 54 | 132 | 4.3 | 7.8 | 0.00 | 0.00 | 0.00 | 63 | 1018.6 |
| 20260502024038 | 54 | 133 | 4.3 | 7.8 | 0.00 | 0.00 | 0.00 | 63 | 1018.6 |
| 20260502023536 | 54 | 150 | 4.3 | 7.8 | 0.00 | 0.00 | 0.00 | 63 | 1018.6 |
| 20260502023033 | 54 | 165 | 4.3 | 7.8 | 0.00 | 0.00 | 0.00 | 63 | 1018.7 |
| 20260502022531 | 55 | 148 | 4.3 | 7.8 | 0.00 | 0.00 | 0.00 | 63 | 1018.8 |
| 20260502022031 | 55 | 152 | 4.3 | 7.8 | 0.00 | 0.00 | 0.00 | 63 | 1018.8 |
| 20260502021532 | 54 | 163 | 3.5 | 8.7 | 0.00 | 0.00 | 0.00 | 63 | 1018.8 |
| 20260502021030 | 55 | 137 | 3.5 | 8.7 | 0.00 | 0.00 | 0.00 | 63 | 1018.9 |
| 20260502020030 | 55 | 195 | 3.5 | 8.7 | 0.00 | 0.00 | 0.00 | 62 | 1019.1 |
| 20260502015528 | 55 | 122 | 3.5 | 6.1 | 0.00 | 0.00 | 0.00 | 62 | 1019.0 |
| 20260502015027 | 55 | 126 | 3.5 | 6.1 | 0.00 | 0.00 | 0.00 | 62 | 1019.1 |
| 20260502014528 | 55 | 105 | 3.5 | 7.0 | 0.00 | 0.00 | 0.00 | 62 | 1019.1 |
| 20260502014028 | 55 | 119 | 4.3 | 7.0 | 0.00 | 0.00 | 0.00 | 62 | 1019.1 |
| 20260502013525 | 55 | 160 | 4.3 | 7.8 | 0.00 | 0.00 | 0.00 | 62 | 1019.2 |
| 20260502013028 | 55 | 157 | 4.3 | 7.8 | 0.00 | 0.00 | 0.00 | 62 | 1019.3 |
| 20260502012525 | 56 | 135 | 3.5 | 6.1 | 0.00 | 0.00 | 0.00 | 62 | 1019.2 |
| 20260502011522 | 56 | 160 | 3.5 | 7.0 | 0.00 | 0.00 | 0.00 | 62 | 1019.4 |
| 20260502010018 | 56 | 114 | 3.5 | 7.0 | 0.00 | 0.00 | 0.00 | 62 | 1019.5 |
| 20260502005519 | 56 | 124 | 3.5 | 7.0 | 0.00 | 0.00 | 0.00 | 62 | 1019.6 |
| 20260502005020 | 56 | 135 | 3.5 | 7.0 | 0.00 | 0.00 | 0.00 | 62 | 1019.7 |
| 20260502004516 | 56 | 122 | 3.5 | 7.0 | 0.00 | 0.00 | 0.00 | 61 | 1019.7 |
| 20260502004015 | 56 | 141 | 4.3 | 7.0 | 0.00 | 0.00 | 0.00 | 61 | 1019.8 |
| 20260502003514 | 56 | 138 | 3.5 | 7.0 | 0.00 | 0.00 | 0.00 | 61 | 1019.8 |
| 20260502003012 | 56 | 114 | 3.5 | 7.0 | 0.00 | 0.00 | 0.00 | 61 | 1019.9 |
| 20260502002514 | 56 | 152 | 3.5 | 6.1 | 0.00 | 0.00 | 0.00 | 62 | 1020.0 |
| 20260502002010 | 56 | 155 | 3.5 | 5.2 | 0.00 | 0.00 | 0.00 | 62 | 1020.0 |
| 20260502001508 | 56 | 138 | 2.6 | 5.2 | 0.00 | 0.00 | 0.00 | 62 | 1020.1 |
| 20260502001009 | 56 | 147 | 2.6 | 5.2 | 0.00 | 0.00 | 0.00 | 62 | 1020.1 |
| 20260502000505 | 56 | 148 | 2.6 | 5.2 | 0.00 | 0.00 | 0.00 | 62 | 1020.2 |
| 20260502000005 | 56 | 163 | 2.6 | 6.1 | 0.00 | 0.00 | 0.00 | 62 | 1020.1 |
| 20260501235506 | 56 | 157 | 2.6 | 6.1 | 0.00 | 0.00 | 0.00 | 61 | 1020.2 |
| 20260501234504 | 56 | 135 | 2.6 | 6.1 | 0.00 | 0.00 | 0.00 | 62 | 1020.2 |
| 20260501234007 | 56 | 159 | 2.6 | 5.2 | 0.00 | 0.00 | 0.00 | 62 | 1020.4 |
| 20260501233504 | 56 | 138 | 2.6 | 5.2 | 0.00 | 0.00 | 0.00 | 62 | 1020.3 |
| 20260501233004 | 56 | 128 | 2.6 | 5.2 | 0.00 | 0.00 | 0.00 | 62 | 1020.3 |
| 20260501232004 | 56 | 127 | 2.6 | 5.2 | 0.00 | 0.00 | 0.00 | 62 | 1020.4 |
| 20260501231506 | 56 | 142 | 2.6 | 5.2 | 0.00 | 0.00 | 0.00 | 61 | 1020.4 |
| 20260501231004 | 56 | 135 | 2.6 | 5.2 | 0.00 | 0.00 | 0.00 | 61 | 1020.5 |
| 20260501225505 | 56 | 138 | 2.6 | 5.2 | 0.00 | 0.00 | 0.00 | 61 | 1020.5 |
| 20260501225004 | 56 | 135 | 2.6 | 5.2 | 0.00 | 0.00 | 0.00 | 62 | 1020.5 |
| 20260501224503 | 55 | 130 | 2.6 | 5.2 | 0.00 | 0.00 | 0.00 | 62 | 1020.6 |
| 20260501224002 | 55 | 124 | 2.6 | 5.2 | 0.00 | 0.00 | 0.00 | 63 | 1020.6 |
| 20260501223455 | 55 | 166 | 2.6 | 5.2 | 0.00 | 0.00 | 0.00 | 63 | 1020.7 |
| 20260501222955 | 55 | 174 | 2.6 | 4.3 | 0.00 | 0.00 | 0.00 | 62 | 1020.7 |
| 20260501222455 | 55 | 129 | 2.6 | 4.3 | 0.00 | 0.00 | 0.00 | 62 | 1020.7 |
| 20260501221956 | 55 | 201 | 1.7 | 3.5 | 0.00 | 0.00 | 0.00 | 62 | 1020.7 |
| 20260501221454 | 56 | 140 | 1.7 | 3.5 | 0.00 | 0.00 | 0.00 | 61 | 1020.6 |
| 20260501220954 | 56 | 163 | 1.7 | 3.5 | 0.00 | 0.00 | 0.00 | 60 | 1020.7 |
| 20260501215951 | 58 | 172 | 1.7 | 3.5 | 0.00 | 0.00 | 0.00 | 56 | 1020.8 |
| 20260501215451 | 59 | 171 | 1.7 | 5.2 | 0.00 | 0.00 | 0.00 | 55 | 1020.7 |
| 20260501214953 | 60 | 165 | 1.7 | 5.2 | 0.00 | 0.00 | 0.00 | 53 | 1020.8 |